GOES 4 [-]

Last updated on June 19, 2019, 3:33 a.m. UTC

1 11964U 80074A   19169.26824153 -.00000322  00000-0  00000+0 0  9994
2 11964  13.1794 326.8380 0035239  36.1424 140.2652  0.99233202102261
UTC
Height (km)
Latitude
Longitude
Inclination
Orbital Period
UTC large
Height (km)
Speed (km/s)
/
Latitude / Longitude
Inclination (degrees)
Orbital Period (minutes)
Azimuth
Elevation
Range (km)
Doppler Factor
iOS Compass Heading
iOS Angle

Next 30 passes for location: Hong Kong

Rise time Rise Azimuth (degrees) Set time Set Azimuth (degrees) Duration Max altitude (degrees)

No matching passes for this satellites